Location: Frizzleburg
(41.0764°N, 80.4548°W)
Time: 10:41:15
(UTC+00:00)

Cosmos 2237 - Pass Details

Date: 17 November 2019
Orbit: 845 x 857 km, 70.8° (Epoch: 11 December)

Event Time Altitude Azimuth Distance (km) Brightness Sun altitude
Rises 11:18:05 0° 336° (NNW) 3,436 7.0 -10.3°
Reaches altitude 10° 11:20:33 10° 337° (NNW) 2,495 6.3 -9.8°
Maximum altitude 11:26:18 83° 67° (ENE) 865 4.3 -8.8°
Drops below altitude 10° 11:32:00 10° 155° (SSE) 2,471 7.3 -7.8°
Sets 11:34:26 0° 156° (SSE) 3,401 8.1 -7.3°
